| time (UTC) | temp C | wind direction | speed KPH | gust KPH | rain 1hr cm | rain 24hr cm | rain mn cm | humidity % | barometer mb |
| 20260506221803 | 21 | 190 | 6.4 | 19.3 | 0.00 | 0.00 | 0.00 | 44 | 1014.3 |
| 20260506221203 | 21 | 189 | 6.4 | 20.9 | 0.00 | 0.00 | 0.00 | 44 | 1014.5 |
| 20260506220603 | 21 | 186 | 6.4 | 20.9 | 0.00 | 0.00 | 0.00 | 45 | 1014.4 |
| 20260506220003 | 21 | 180 | 8.0 | 20.9 | 0.00 | 0.00 | 0.00 | 46 | 1014.4 |
| 20260506215403 | 22 | 178 | 6.4 | 20.9 | 0.00 | 0.00 | 0.00 | 45 | 1014.4 |
| 20260506214803 | 22 | 187 | 4.8 | 22.5 | 0.00 | 0.00 | 0.00 | 46 | 1014.5 |
| 20260506214203 | 22 | 189 | 4.8 | 17.7 | 0.00 | 0.00 | 0.00 | 45 | 1014.5 |
| 20260506213603 | 22 | 202 | 4.8 | 17.7 | 0.00 | 0.00 | 0.00 | 46 | 1014.5 |
| 20260506213003 | 22 | 191 | 6.4 | 22.5 | 0.00 | 0.00 | 0.00 | 47 | 1014.6 |
| 20260506212403 | 22 | 181 | 6.4 | 27.4 | 0.00 | 0.00 | 0.00 | 45 | 1014.7 |
| 20260506211803 | 22 | 192 | 8.0 | 24.1 | 0.00 | 0.00 | 0.00 | 46 | 1014.6 |
| 20260506211203 | 22 | 198 | 8.0 | 24.1 | 0.00 | 0.00 | 0.00 | 45 | 1014.7 |
| 20260506210603 | 23 | 199 | 8.0 | 24.1 | 0.00 | 0.00 | 0.00 | 45 | 1014.6 |
| 20260506210004 | 23 | 203 | 8.0 | 25.7 | 0.00 | 0.00 | 0.00 | 45 | 1014.5 |
| 20260506205403 | 23 | 195 | 8.0 | 25.7 | 0.00 | 0.00 | 0.00 | 45 | 1014.5 |
| 20260506204803 | 23 | 205 | 6.4 | 22.5 | 0.00 | 0.00 | 0.00 | 45 | 1014.4 |
| 20260506204203 | 22 | 200 | 9.7 | 30.6 | 0.00 | 0.00 | 0.00 | 44 | 1014.4 |
| 20260506203603 | 23 | 195 | 9.7 | 30.6 | 0.00 | 0.00 | 0.00 | 43 | 1014.3 |
| 20260506203003 | 23 | 199 | 9.7 | 24.1 | 0.00 | 0.00 | 0.00 | 41 | 1014.3 |
| 20260506202403 | 23 | 203 | 8.0 | 24.1 | 0.00 | 0.00 | 0.00 | 39 | 1014.3 |
| 20260506201803 | 24 | 218 | 6.4 | 25.7 | 0.00 | 0.00 | 0.00 | 40 | 1014.2 |
| 20260506201203 | 24 | 223 | 6.4 | 16.1 | 0.00 | 0.00 | 0.00 | 44 | 1014.0 |
| 20260506200603 | 24 | 211 | 6.4 | 17.7 | 0.00 | 0.00 | 0.00 | 45 | 1014.0 |
| 20260506200004 | 23 | 189 | 8.0 | 25.7 | 0.00 | 0.00 | 0.00 | 44 | 1013.8 |
| 20260506195403 | 23 | 177 | 8.0 | 25.7 | 0.00 | 0.00 | 0.00 | 42 | 1013.9 |
| 20260506194803 | 24 | 195 | 8.0 | 25.7 | 0.00 | 0.00 | 0.00 | 41 | 1013.9 |
| 20260506194203 | 24 | 201 | 6.4 | 27.4 | 0.00 | 0.00 | 0.00 | 42 | 1013.8 |
| 20260506193603 | 24 | 225 | 6.4 | 22.5 | 0.00 | 0.00 | 0.00 | 45 | 1013.8 |
| 20260506193003 | 24 | 202 | 9.7 | 27.4 | 0.00 | 0.00 | 0.00 | 41 | 1013.8 |
| 20260506192403 | 24 | 200 | 8.0 | 27.4 | 0.00 | 0.00 | 0.00 | 41 | 1013.8 |
| 20260506191803 | 24 | 203 | 8.0 | 20.9 | 0.00 | 0.00 | 0.00 | 45 | 1014.0 |
| 20260506191203 | 24 | 198 | 8.0 | 29.0 | 0.00 | 0.00 | 0.00 | 42 | 1013.8 |
| 20260506190603 | 23 | 192 | 8.0 | 29.0 | 0.00 | 0.00 | 0.00 | 44 | 1014.0 |
| 20260506190005 | 24 | 196 | 8.0 | 27.4 | 0.00 | 0.00 | 0.00 | 43 | 1014.1 |
| 20260506185403 | 24 | 194 | 8.0 | 27.4 | 0.00 | 0.00 | 0.00 | 40 | 1013.9 |
| 20260506184803 | 24 | 203 | 6.4 | 25.7 | 0.00 | 0.00 | 0.00 | 43 | 1014.1 |
| 20260506184203 | 24 | 214 | 4.8 | 20.9 | 0.00 | 0.00 | 0.00 | 46 | 1014.1 |
| 20260506183603 | 23 | 205 | 6.4 | 22.5 | 0.00 | 0.00 | 0.00 | 49 | 1014.1 |
| 20260506183004 | 23 | 183 | 9.7 | 25.7 | 0.00 | 0.00 | 0.00 | 45 | 1014.0 |
| 20260506182403 | 23 | 192 | 8.0 | 27.4 | 0.00 | 0.00 | 0.00 | 47 | 1014.0 |
| 20260506181803 | 22 | 200 | 8.0 | 27.4 | 0.00 | 0.00 | 0.00 | 46 | 1014.0 |
| 20260506181203 | 22 | 197 | 6.4 | 22.5 | 0.00 | 0.00 | 0.00 | 48 | 1013.8 |
| 20260506180603 | 21 | 183 | 8.0 | 22.5 | 0.00 | 0.00 | 0.00 | 49 | 1013.9 |
| 20260506180005 | 21 | 170 | 12.9 | 25.7 | 0.00 | 0.00 | 0.00 | 50 | 1013.9 |
| 20260506175403 | 21 | 168 | 11.3 | 29.0 | 0.00 | 0.00 | 0.00 | 50 | 1014.0 |
| 20260506174803 | 21 | 169 | 11.3 | 29.0 | 0.00 | 0.00 | 0.00 | 49 | 1014.0 |
| 20260506174203 | 21 | 176 | 9.7 | 27.4 | 0.00 | 0.00 | 0.00 | 50 | 1014.1 |
| 20260506173603 | 20 | 176 | 9.7 | 24.1 | 0.00 | 0.00 | 0.00 | 52 | 1014.1 |
| 20260506173003 | 20 | 178 | 9.7 | 19.3 | 0.00 | 0.00 | 0.00 | 50 | 1014.2 |
| 20260506172403 | 20 | 196 | 4.8 | 16.1 | 0.00 | 0.00 | 0.00 | 51 | 1014.2 |
| 20260506171805 | 20 | 195 | 4.8 | 14.5 | 0.00 | 0.00 | 0.00 | 55 | 1014.3 |
| 20260506171203 | 18 | 180 | 6.4 | 17.7 | 0.00 | 0.00 | 0.00 | 59 | 1014.3 |
| 20260506170603 | 18 | 178 | 6.4 | 19.3 | 0.00 | 0.00 | 0.00 | 57 | 1014.4 |
| 20260506170004 | 18 | 183 | 8.0 | 25.7 | 0.00 | 0.00 | 0.00 | 59 | 1014.5 |
| 20260506165403 | 17 | 178 | 11.3 | 27.4 | 0.00 | 0.00 | 0.00 | 61 | 1014.4 |
| 20260506164804 | 17 | 166 | 8.0 | 27.4 | 0.00 | 0.00 | 0.00 | 57 | 1014.5 |
| 20260506164203 | 17 | 160 | 6.4 | 12.9 | 0.00 | 0.00 | 0.00 | 59 | 1014.5 |
| 20260506163603 | 17 | 171 | 8.0 | 20.9 | 0.00 | 0.00 | 0.00 | 61 | 1014.5 |
| 20260506163003 | 16 | 167 | 4.8 | 20.9 | 0.00 | 0.00 | 0.00 | 66 | 1014.5 |
| 20260506162403 | 16 | 110 | 1.6 | 9.7 | 0.00 | 0.00 | 0.00 | 71 | 1014.6 |
| 20260506161203 | 15 | 178 | 0.0 | 4.8 | 0.00 | 0.00 | 0.00 | 74 | 1014.7 |
| 20260506160603 | 14 | 173 | 0.0 | 6.4 | 0.00 | 0.00 | 0.00 | 76 | 1014.7 |
| 20260506160004 | 13 | 167 | 1.6 | 8.0 | 0.00 | 0.00 | 0.00 | 77 | 1014.6 |
| 20260506155403 | 13 | 151 | 0.0 | 3.2 | 0.00 | 0.00 | 0.00 | 80 | 1014.7 |
| 20260506154803 | 12 | 147 | 0.0 | 4.8 | 0.00 | 0.00 | 0.00 | 81 | 1014.6 |
| 20260506154204 | 12 | 139 | 0.0 | 4.8 | 0.00 | 0.00 | 0.00 | 81 | 1014.7 |
| 20260506153603 | 11 | 118 | 0.0 | 1.6 | 0.00 | 0.00 | 0.00 | 65 | 1014.8 |
| 20260506153003 | 10 | 0 | 0.0 | 0.0 | 0.00 | 0.00 | 0.00 | 60 | 1014.9 |
| 20260506152403 | 10 | 92 | 0.0 | 1.6 | 0.00 | 0.00 | 0.00 | 56 | 1015.0 |
| 20260506151803 | 9 | 92 | 1.6 | 3.2 | 0.00 | 0.00 | 0.00 | 62 | 1015.1 |
| 20260506151203 | 8 | 92 | 0.0 | 3.2 | 0.00 | 0.00 | 0.00 | 61 | 1015.0 |
| 20260506150603 | 8 | 92 | 0.0 | 1.6 | 0.00 | 0.00 | 0.00 | 61 | 1015.1 |
| 20260506150004 | 7 | 92 | 1.6 | 6.4 | 0.00 | 0.00 | 0.00 | 61 | 1015.2 |
| 20260506145403 | 7 | 85 | 3.2 | 6.4 | 0.00 | 0.00 | 0.00 | 62 | 1015.1 |
| 20260506144803 | 7 | 77 | 4.8 | 8.0 | 0.00 | 0.00 | 0.00 | 61 | 1015.1 |
| 20260506144203 | 6 | 77 | 3.2 | 8.0 | 0.00 | 0.00 | 0.00 | 63 | 1015.1 |
| 20260506143603 | 6 | 77 | 3.2 | 6.4 | 0.00 | 0.00 | 0.00 | 65 | 1015.1 |
| 20260506143003 | 6 | 59 | 4.8 | 6.4 | 0.00 | 0.00 | 0.00 | 64 | 1015.0 |
| 20260506142403 | 6 | 54 | 4.8 | 11.3 | 0.00 | 0.00 | 0.00 | 64 | 1015.1 |
| 20260506141803 | 6 | 69 | 4.8 | 11.3 | 0.00 | 0.00 | 0.00 | 66 | 1015.1 |
| 20260506141203 | 5 | 71 | 4.8 | 6.4 | 0.00 | 0.00 | 0.00 | 67 | 1015.2 |
| 20260506140603 | 5 | 57 | 3.2 | 6.4 | 0.00 | 0.00 | 0.00 | 70 | 1015.1 |
| 20260506140004 | 5 | 49 | 3.2 | 4.8 | 0.00 | 0.00 | 0.00 | 71 | 1015.1 |
| 20260506135403 | 5 | 38 | 4.8 | 12.9 | 0.00 | 0.00 | 0.00 | 68 | 1015.1 |
| 20260506134803 | 5 | 47 | 3.2 | 12.9 | 0.00 | 0.00 | 0.00 | 70 | 1015.2 |
| 20260506134203 | 5 | 58 | 4.8 | 9.7 | 0.00 | 0.00 | 0.00 | 69 | 1015.2 |
| 20260506133603 | 5 | 71 | 4.8 | 11.3 | 0.00 | 0.00 | 0.00 | 66 | 1015.0 |
| 20260506133003 | 5 | 72 | 4.8 | 11.3 | 0.00 | 0.00 | 0.00 | 66 | 1014.9 |
| 20260506132403 | 5 | 68 | 4.8 | 9.7 | 0.00 | 0.00 | 0.00 | 69 | 1014.9 |
| 20260506131803 | 5 | 75 | 4.8 | 9.7 | 0.00 | 0.00 | 0.00 | 70 | 1014.8 |
| 20260506131203 | 5 | 76 | 4.8 | 11.3 | 0.00 | 0.00 | 0.00 | 71 | 1014.8 |
| 20260506130603 | 5 | 72 | 3.2 | 6.4 | 0.00 | 0.00 | 0.00 | 73 | 1014.9 |
| 20260506130005 | 5 | 54 | 3.2 | 6.4 | 0.00 | 0.00 | 0.00 | 73 | 1014.9 |
| 20260506125403 | 5 | 58 | 3.2 | 6.4 | 0.00 | 0.00 | 0.00 | 73 | 1014.9 |
| 20260506124803 | 5 | 62 | 3.2 | 6.4 | 0.00 | 0.00 | 0.00 | 74 | 1014.9 |
| 20260506124203 | 5 | 68 | 3.2 | 11.3 | 0.00 | 0.00 | 0.00 | 74 | 1014.8 |
| 20260506123603 | 5 | 67 | 4.8 | 11.3 | 0.00 | 0.00 | 0.00 | 74 | 1014.7 |
| 20260506123003 | 5 | 79 | 3.2 | 9.7 | 0.00 | 0.00 | 0.00 | 75 | 1014.8 |
| 20260506122403 | 5 | 81 | 4.8 | 11.3 | 0.00 | 0.00 | 0.00 | 74 | 1014.7 |
| 20260506121803 | 5 | 75 | 4.8 | 11.3 | 0.00 | 0.00 | 0.00 | 75 | 1014.7 |
| 20260506121203 | 5 | 71 | 4.8 | 9.7 | 0.00 | 0.00 | 0.00 | 74 | 1014.6 |
| 20260506120603 | 5 | 80 | 4.8 | 9.7 | 0.00 | 0.00 | 0.00 | 74 | 1014.6 |
| 20260506120004 | 5 | 80 | 3.2 | 8.0 | 0.00 | 0.00 | 0.00 | 75 | 1014.6 |
| 20260506115403 | 5 | 80 | 4.8 | 11.3 | 0.00 | 0.00 | 0.00 | 75 | 1014.6 |
| 20260506114803 | 5 | 80 | 4.8 | 11.3 | 0.00 | 0.00 | 0.00 | 75 | 1014.5 |
| 20260506114203 | 5 | 85 | 4.8 | 11.3 | 0.00 | 0.00 | 0.00 | 75 | 1014.5 |
| 20260506113603 | 6 | 81 | 4.8 | 11.3 | 0.00 | 0.00 | 0.00 | 76 | 1014.5 |
| 20260506113003 | 6 | 74 | 4.8 | 11.3 | 0.00 | 0.00 | 0.00 | 74 | 1014.5 |
| 20260506112403 | 6 | 60 | 3.2 | 8.0 | 0.00 | 0.00 | 0.00 | 76 | 1014.5 |
| 20260506111803 | 6 | 55 | 3.2 | 4.8 | 0.00 | 0.00 | 0.00 | 76 | 1014.5 |
| 20260506111203 | 6 | 54 | 3.2 | 6.4 | 0.00 | 0.00 | 0.00 | 77 | 1014.4 |
| 20260506110603 | 6 | 40 | 3.2 | 4.8 | 0.00 | 0.00 | 0.00 | 77 | 1014.4 |
| 20260506110004 | 6 | 51 | 3.2 | 4.8 | 0.00 | 0.00 | 0.00 | 78 | 1014.4 |
| 20260506105403 | 6 | 74 | 3.2 | 9.7 | 0.00 | 0.00 | 0.00 | 78 | 1014.3 |
| 20260506104803 | 6 | 73 | 3.2 | 6.4 | 0.00 | 0.00 | 0.00 | 78 | 1014.2 |
| 20260506104203 | 6 | 80 | 4.8 | 9.7 | 0.00 | 0.00 | 0.00 | 78 | 1014.1 |
| 20260506103603 | 6 | 84 | 4.8 | 8.0 | 0.00 | 0.00 | 0.00 | 78 | 1014.1 |
| 20260506103003 | 6 | 90 | 1.6 | 6.4 | 0.00 | 0.00 | 0.00 | 78 | 1014.0 |
| 20260506102403 | 6 | 85 | 0.0 | 6.4 | 0.00 | 0.00 | 0.00 | 79 | 1014.0 |
| 20260506101803 | 6 | 0 | 0.0 | 0.0 | 0.00 | 0.00 | 0.00 | 79 | 1014.0 |
| 20260506101203 | 6 | 0 | 0.0 | 0.0 | 0.00 | 0.00 | 0.00 | 79 | 1014.0 |
| 20260506100603 | 7 | 0 | 0.0 | 0.0 | 0.00 | 0.00 | 0.00 | 80 | 1014.0 |
| 20260506100004 | 7 | 0 | 0.0 | 0.0 | 0.00 | 0.00 | 0.00 | 80 | 1013.9 |
| 20260506095403 | 7 | 0 | 0.0 | 0.0 | 0.00 | 0.00 | 0.00 | 79 | 1013.9 |
| 20260506094803 | 7 | 0 | 0.0 | 0.0 | 0.00 | 0.00 | 0.00 | 80 | 1013.9 |
| 20260506094203 | 7 | 0 | 0.0 | 0.0 | 0.00 | 0.00 | 0.00 | 80 | 1013.8 |
| 20260506093603 | 7 | 0 | 0.0 | 0.0 | 0.00 | 0.00 | 0.00 | 80 | 1013.8 |
| 20260506093217 | 7 | 0 | 0.0 | 0.0 | 0.00 | 0.00 | 0.00 | 80 | 1013.8 |
| 20260506092403 | 7 | 69 | 0.0 | 1.6 | 0.00 | 0.00 | 0.00 | 80 | 1013.8 |
| 20260506091803 | 7 | 73 | 0.0 | 1.6 | 0.00 | 0.00 | 0.00 | 81 | 1013.8 |
| 20260506091203 | 7 | 80 | 0.0 | 1.6 | 0.00 | 0.00 | 0.00 | 81 | 1013.9 |
| 20260506090603 | 7 | 0 | 0.0 | 0.0 | 0.00 | 0.00 | 0.00 | 81 | 1013.8 |
| 20260506090003 | 7 | 84 | 0.0 | 3.2 | 0.00 | 0.00 | 0.00 | 82 | 1013.8 |
| 20260506085403 | 7 | 0 | 0.0 | 0.0 | 0.00 | 0.00 | 0.00 | 82 | 1013.8 |
| 20260506084803 | 8 | 78 | 0.0 | 1.6 | 0.00 | 0.00 | 0.00 | 82 | 1013.7 |
| 20260506084203 | 8 | 77 | 0.0 | 3.2 | 0.00 | 0.00 | 0.00 | 82 | 1013.8 |
| 20260506083603 | 8 | 78 | 1.6 | 4.8 | 0.00 | 0.00 | 0.00 | 82 | 1013.7 |
| 20260506083003 | 8 | 78 | 0.0 | 4.8 | 0.00 | 0.00 | 0.00 | 82 | 1013.7 |
| 20260506082403 | 8 | 77 | 0.0 | 4.8 | 0.00 | 0.00 | 0.00 | 82 | 1013.7 |
| 20260506081803 | 8 | 90 | 1.6 | 6.4 | 0.00 | 0.00 | 0.00 | 82 | 1013.7 |
| 20260506081203 | 8 | 92 | 1.6 | 6.4 | 0.00 | 0.00 | 0.00 | 82 | 1013.7 |
| 20260506080603 | 9 | 91 | 1.6 | 4.8 | 0.00 | 0.00 | 0.00 | 82 | 1013.6 |
| 20260506073003 | 10 | 84 | 1.6 | 6.4 | 0.00 | 0.00 | 0.00 | 81 | 1013.4 |
| 20260506072403 | 10 | 79 | 1.6 | 6.4 | 0.00 | 0.00 | 0.00 | 80 | 1013.4 |
| 20260506071803 | 10 | 72 | 1.6 | 6.4 | 0.00 | 0.00 | 0.00 | 80 | 1013.4 |
| 20260506071203 | 10 | 72 | 0.0 | 4.8 | 0.00 | 0.00 | 0.00 | 80 | 1013.4 |
| 20260506070603 | 10 | 80 | 0.0 | 11.3 | 0.00 | 0.00 | 0.00 | 80 | 1013.3 |
| 20260506062403 | 11 | 0 | 0.0 | 0.0 | 0.00 | 0.00 | 0.00 | 79 | 1013.0 |
| 20260506061803 | 11 | 0 | 0.0 | 0.0 | 0.00 | 0.00 | 0.00 | 79 | 1013.0 |
| 20260506061203 | 11 | 0 | 0.0 | 0.0 | 0.00 | 0.00 | 0.00 | 79 | 1013.0 |
| 20260506060603 | 11 | 0 | 0.0 | 0.0 | 0.00 | 0.00 | 0.00 | 79 | 1013.0 |
| 20260506051203 | 13 | 0 | 0.0 | 0.0 | 0.00 | 0.00 | 0.00 | 74 | 1012.7 |
| 20260506050603 | 13 | 0 | 0.0 | 0.0 | 0.00 | 0.00 | 0.00 | 73 | 1012.7 |
| 20260506044803 | 14 | 0 | 0.0 | 0.0 | 0.00 | 0.00 | 0.00 | 72 | 1012.5 |
| 20260506044203 | 14 | 0 | 0.0 | 0.0 | 0.00 | 0.00 | 0.00 | 70 | 1012.4 |
| 20260506043603 | 15 | 0 | 0.0 | 0.0 | 0.00 | 0.00 | 0.00 | 69 | 1012.4 |
| 20260506043003 | 15 | 0 | 0.0 | 0.0 | 0.00 | 0.00 | 0.00 | 69 | 1012.4 |
| 20260506042403 | 15 | 0 | 0.0 | 0.0 | 0.00 | 0.00 | 0.00 | 68 | 1012.3 |
| 20260506041803 | 16 | 0 | 0.0 | 0.0 | 0.00 | 0.00 | 0.00 | 67 | 1012.3 |
| 20260506041203 | 16 | 0 | 0.0 | 0.0 | 0.00 | 0.00 | 0.00 | 66 | 1012.1 |
| 20260506040603 | 16 | 0 | 0.0 | 0.0 | 0.00 | 0.00 | 0.00 | 65 | 1012.1 |
| 20260506040003 | 17 | 0 | 0.0 | 0.0 | 0.00 | 0.00 | 0.00 | 64 | 1012.0 |
| 20260506035403 | 17 | 0 | 0.0 | 0.0 | 0.00 | 0.00 | 0.00 | 62 | 1011.9 |
| 20260506034803 | 17 | 0 | 0.0 | 0.0 | 0.00 | 0.00 | 0.00 | 61 | 1011.8 |
| 20260506034203 | 18 | 0 | 0.0 | 0.0 | 0.00 | 0.00 | 0.00 | 60 | 1011.7 |
| 20260506033603 | 18 | 221 | 0.0 | 8.0 | 0.00 | 0.00 | 0.00 | 59 | 1011.5 |
| 20260506033003 | 18 | 221 | 0.0 | 8.0 | 0.00 | 0.00 | 0.00 | 57 | 1011.5 |
| 20260506032403 | 19 | 178 | 0.0 | 4.8 | 0.00 | 0.00 | 0.00 | 56 | 1011.4 |
| 20260506031803 | 20 | 182 | 1.6 | 8.0 | 0.00 | 0.00 | 0.00 | 53 | 1011.3 |
| 20260506031203 | 20 | 170 | 1.6 | 9.7 | 0.00 | 0.00 | 0.00 | 52 | 1011.2 |
| 20260506030603 | 20 | 148 | 3.2 | 11.3 | 0.00 | 0.00 | 0.00 | 51 | 1011.1 |
| 20260506030004 | 20 | 159 | 4.8 | 11.3 | 0.00 | 0.00 | 0.00 | 51 | 1011.1 |
| 20260506025403 | 21 | 170 | 6.4 | 16.1 | 0.00 | 0.00 | 0.00 | 50 | 1011.0 |
| 20260506024803 | 21 | 169 | 6.4 | 16.1 | 0.00 | 0.00 | 0.00 | 49 | 1010.9 |
| 20260506024203 | 21 | 173 | 4.8 | 16.1 | 0.00 | 0.00 | 0.00 | 48 | 1010.8 |
| 20260506023603 | 22 | 179 | 4.8 | 14.5 | 0.00 | 0.00 | 0.00 | 47 | 1010.7 |
| 20260506023003 | 22 | 177 | 3.2 | 14.5 | 0.00 | 0.00 | 0.00 | 46 | 1010.7 |
| 20260506022403 | 22 | 179 | 3.2 | 8.0 | 0.00 | 0.00 | 0.00 | 46 | 1010.6 |
| 20260506021803 | 23 | 174 | 4.8 | 14.5 | 0.00 | 0.00 | 0.00 | 44 | 1010.6 |
| 20260506021203 | 23 | 176 | 6.4 | 17.7 | 0.00 | 0.00 | 0.00 | 43 | 1010.6 |
| 20260506020603 | 24 | 180 | 4.8 | 17.7 | 0.00 | 0.00 | 0.00 | 42 | 1010.5 |
| 20260506020003 | 25 | 178 | 3.2 | 9.7 | 0.00 | 0.00 | 0.00 | 41 | 1010.4 |
| 20260506015403 | 25 | 186 | 3.2 | 16.1 | 0.00 | 0.00 | 0.00 | 39 | 1010.4 |
| 20260506014803 | 25 | 190 | 6.4 | 22.5 | 0.00 | 0.00 | 0.00 | 39 | 1010.4 |
| 20260506014203 | 25 | 196 | 6.4 | 22.5 | 0.00 | 0.00 | 0.00 | 37 | 1010.4 |
| 20260506013603 | 26 | 195 | 6.4 | 19.3 | 0.00 | 0.00 | 0.00 | 38 | 1010.3 |
| 20260506013003 | 26 | 187 | 6.4 | 22.5 | 0.00 | 0.00 | 0.00 | 36 | 1010.3 |
| 20260506012403 | 26 | 175 | 6.4 | 22.5 | 0.00 | 0.00 | 0.00 | 36 | 1010.2 |
| 20260506011803 | 27 | 182 | 3.2 | 22.5 | 0.00 | 0.00 | 0.00 | 33 | 1010.2 |
| 20260506011203 | 27 | 198 | 4.8 | 29.0 | 0.00 | 0.00 | 0.00 | 34 | 1010.2 |
| 20260506010603 | 27 | 194 | 6.4 | 29.0 | 0.00 | 0.00 | 0.00 | 33 | 1010.2 |
| 20260506010004 | 27 | 183 | 6.4 | 22.5 | 0.00 | 0.00 | 0.00 | 33 | 1010.2 |
| 20260506005403 | 27 | 193 | 4.8 | 22.5 | 0.00 | 0.00 | 0.00 | 32 | 1010.1 |
| 20260506004803 | 28 | 193 | 3.2 | 22.5 | 0.00 | 0.00 | 0.00 | 30 | 1010.0 |
| 20260506004203 | 28 | 197 | 6.4 | 22.5 | 0.00 | 0.00 | 0.00 | 32 | 1010.1 |
| 20260506003603 | 28 | 194 | 8.0 | 22.5 | 0.00 | 0.00 | 0.00 | 31 | 1010.1 |
| 20260506003003 | 28 | 206 | 4.8 | 17.7 | 0.00 | 0.00 | 0.00 | 30 | 1010.2 |
| 20260506002403 | 29 | 184 | 3.2 | 24.1 | 0.00 | 0.00 | 0.00 | 29 | 1010.0 |
| 20260506001803 | 29 | 202 | 4.8 | 24.1 | 0.00 | 0.00 | 0.00 | 27 | 1010.0 |
| 20260506001203 | 30 | 196 | 3.2 | 19.3 | 0.00 | 0.00 | 0.00 | 26 | 1010.0 |
| 20260506000603 | 30 | 221 | 3.2 | 19.3 | 0.00 | 0.00 | 0.00 | 26 | 1010.0 |
| 20260506000004 | 30 | 234 | 1.6 | 16.1 | 0.00 | 0.00 | 0.00 | 25 | 1010.3 |
| 20260505235403 | 30 | 240 | 3.2 | 19.3 | 0.00 | 0.00 | 0.00 | 27 | 1010.1 |
| 20260505234803 | 30 | 226 | 1.6 | 19.3 | 0.00 | 0.00 | 0.00 | 25 | 1010.3 |
| 20260505234203 | 30 | 232 | 1.6 | 14.5 | 0.00 | 0.00 | 0.00 | 24 | 1010.3 |
| 20260505233603 | 30 | 245 | 4.8 | 17.7 | 0.00 | 0.00 | 0.00 | 24 | 1010.3 |
| 20260505233003 | 30 | 235 | 3.2 | 16.1 | 0.00 | 0.00 | 0.00 | 26 | 1010.2 |
| 20260505232403 | 31 | 243 | 1.6 | 12.9 | 0.00 | 0.00 | 0.00 | 25 | 1010.3 |
| 20260505231803 | 31 | 201 | 3.2 | 16.1 | 0.00 | 0.00 | 0.00 | 27 | 1010.3 |
| 20260505231203 | 30 | 237 | 3.2 | 19.3 | 0.00 | 0.00 | 0.00 | 26 | 1010.3 |
| 20260505230603 | 30 | 257 | 1.6 | 14.5 | 0.00 | 0.00 | 0.00 | 27 | 1010.4 |
| 20260505230004 | 30 | 205 | 3.2 | 24.1 | 0.00 | 0.00 | 0.00 | 29 | 1010.4 |
| 20260505225403 | 29 | 189 | 4.8 | 24.1 | 0.00 | 0.00 | 0.00 | 32 | 1010.4 |
| 20260505224803 | 29 | 196 | 3.2 | 14.5 | 0.00 | 0.00 | 0.00 | 30 | 1010.5 |
| 20260505224203 | 29 | 193 | 6.4 | 27.4 | 0.00 | 0.00 | 0.00 | 30 | 1010.4 |
| 20260505223603 | 28 | 192 | 6.4 | 27.4 | 0.00 | 0.00 | 0.00 | 31 | 1010.5 |
| 20260505223003 | 28 | 201 | 3.2 | 24.1 | 0.00 | 0.00 | 0.00 | 37 | 1010.6 |
| 20260505222403 | 27 | 302 | 1.6 | 8.0 | 0.00 | 0.00 | 0.00 | 39 | 1010.6 |